| time (UTC) | temp F | wind direction | speed MPH | gust MPH | rain 1hr in | rain 24hr in | rain mn in | humidity % | barometer mb |
| 20260508002122 | 55 | 340 | 7.0 | 0.0 | 0.00 | 0.00 | 0.00 | 76 | |
| 20260507232123 | 57 | 10 | 5.0 | 0.0 | 0.00 | 0.00 | 0.00 | 76 | |
| 20260507222609 | 57 | 330 | 7.0 | 0.0 | 0.00 | 0.00 | 0.00 | 76 | |
| 20260507222424 | 57 | 330 | 7.0 | 0.0 | 0.00 | 0.00 | 0.00 | 76 | |
| 20260507212124 | 57 | 310 | 2.0 | 0.0 | 0.00 | 0.00 | 0.00 | 76 | |
| 20260507202125 | 59 | 140 | 7.0 | 0.0 | 0.00 | 0.00 | 0.00 | 72 | |
| 20260507192227 | 63 | 260 | 7.0 | 0.0 | 0.00 | 0.00 | 0.00 | 55 | |
| 20260507182123 | 64 | 270 | 7.0 | 0.0 | 0.00 | 0.00 | 0.00 | 52 | |
| 20260507172124 | 70 | 240 | 7.0 | 0.0 | 0.00 | 0.00 | 0.00 | 40 | |
| 20260507162425 | 72 | 210 | 5.0 | 0.0 | 0.00 | 0.00 | 0.00 | 35 | |
| 20260507152125 | 68 | 150 | 14.0 | 0.0 | 0.00 | 0.00 | 0.00 | 42 | |
| 20260507142125 | 68 | 170 | 12.0 | 0.0 | 0.00 | 0.00 | 0.00 | 45 | |
| 20260507132225 | 70 | 180 | 14.0 | 0.0 | 0.00 | 0.00 | 0.00 | 43 | |
| 20260507122124 | 68 | 190 | 14.0 | 0.0 | 0.00 | 0.00 | 0.00 | 49 | |
| 20260507112140 | 66 | 190 | 12.0 | 0.0 | 0.00 | 0.00 | 0.00 | 52 | |
| 20260507102324 | 66 | 190 | 9.0 | 0.0 | 0.00 | 0.00 | 0.00 | 52 | |
| 20260507092124 | 64 | 160 | 5.0 | 0.0 | 0.00 | 0.00 | 0.00 | 55 | |
| 20260507082123 | 63 | 280 | 9.0 | 0.0 | 0.00 | 0.00 | 0.00 | 63 | |
| 20260507072124 | 63 | 280 | 14.0 | 0.0 | 0.00 | 0.00 | 0.00 | 63 | |
| 20260507062123 | 61 | 300 | 2.0 | 0.0 | 0.00 | 0.00 | 0.00 | 67 | |
| 20260507052123 | 57 | 130 | 5.0 | 0.0 | 0.00 | 0.00 | 0.00 | 76 | |
| 20260507042325 | 54 | 190 | 5.0 | 0.0 | 0.00 | 0.00 | 0.00 | 87 | |
| 20260507032123 | 54 | 280 | 2.0 | 0.0 | 0.00 | 0.00 | 0.00 | 87 | |
| 20260507022121 | 57 | 210 | 7.0 | 0.0 | 0.00 | 0.00 | 0.00 | 76 | |
| 20260507012222 | 59 | 200 | 7.0 | 0.0 | 0.00 | 0.00 | 0.00 | 72 |